MSG 1 DEB (COOLER COVER), 39998

Orbit data source: Space-Track

MSG 1 DEB (COOLER COVER), 39998 is space debris in GEO originally from a launch on Wed, 28 Aug 2002 UTC launched from the French Guiana (FRGUI). Debris objects in space refer to the collection of defunct objects orbiting the Earth. Examples of debris include non-operational satellites, rocket bodies, and fragments generated from explosions, collisions, or faulty payload assembly.

Not visible in the next 10 days
Identifier
39998, 2002-040E
Orbit
GEO
Last TLE update
3 weeks ago
Origin
Manufacturer
SENER
Mission
Spacecraft
Bus & Motor
MSG COVER, Unknown motor
Mass
8.4 kg wet, 8.4 kg dry
Launch date (UTC)
2002-08-28 (23 years ago)
Launch vehicle
Unknown
Launch site
French Guiana (FRGUI)
Object type
Payload
Rocket body
Debris
Shape & HBR
Cyl, 1.55 m
Radar Cross Section
1.065 m²

Expand to show TLE details & history

TLE from 3 weeks ago
0 MSG 1 DEB (COOLER COVER)
1 39998U 02040E   25107.09542520 -.00000209  00000-0  00000-0 0  9998
2 39998  12.0542  17.8041 0030922  90.8410  79.6104  1.01188132 13526
Epoch: 2025-04-17T02:17Z
Definitive object data (Epoch: 2025-04-17T02:17:24.737Z)
Latitude
1.90212°
Longitude
-51.01721°
Altitude
35,508.347 km
Speed
3.086 km/s
True Right ascension
12h 35m 13s
True Declination
1° 54' 01"
Sunlit
Object was in daylight at TLE epoch
Visualization TLE readout
Latitude
2.31174°
Longitude
-53.08562°
Altitude
35,503.353 km
Speed
3.086 km/s
Apparent Right ascension
12h 48m 12s
Apparent Declination
-3° 03' 16"
Sunlit
Object is in daylight
Visualization observer readout
Local Sidereal Time
04:17:22
Azimuth
66.042° ENE
Elevation
-30.175°
Doppler factor
1
Orbital elements
Apogee altitude
35,662.255 km
Perigee altitude
35,403.061 km
Semi-major axis
41,910.795 km
Eccentricity
0.0030922
Inclination
12.0542°
RAAN
17.8041°
Arg. of periapsis
90.841°
True anomaly
79.95917°
Mean anomaly
79.6104°
Eccentric anomaly
79.78476°
Mean motion
0.25296 °/min
BSTAR
Unknown
Orbital period
1423.14 mins
Loading historical data...
39998 neighbors
Loading maneuver chart data...
Loading SW <> Apogee altitude chart data...
Loading historical data...
Loading historical data...
Loading historical data...
Loading historical data...
Loading historical data...
Loading historical data...
Loading historical data...

MSG 1 DEB (COOLER COVER) Visibility forecast

Observer location: undefined°, undefined°

MSG 1 DEB (COOLER COVER) is not visible in the next 10 days
Span
Click to sort rows by Start time (UTC) header in descending order
Start Az.
Max El. time (UTC)
Max El. Az.
Max El.
End time (UTC)
End Az.
|